Terminal Aerodrome Forecast
Issued by NWS

Current Version | Previous Version | Graphics & Text | Print | Product List | Glossary On
Versions: 1 2 3 4 5 6 7 8 9 10 11 12 13 14 15 16 17 18 19 20 21 22 23 24 25
000
FTUS41 KPBZ 202300
TAFMGW
TAF
KMGW 202320Z 2100/2124 VRB05KT P6SM SCT040
     FM210800 VRB05KT 3SM BR SKC
      TEMPO 2109/2113 1/2SM FG OVC001
     FM211400 VRB05KT P6SM BKN040=

USA.gov is the U.S. government's official web portal to all federal, state and local government web resources and services.